Theta_e
348 347 346 346 348 352 352 350 350 351 351 350 348 348 349 350 351 351 350 354 350 349 348 349 351 352 357 357 354 352 351 348 345 345 343 342 340 339 339 338 337 336 336
349 347 347 346 347 350 350 351 350 351 350 350 350 350 351 351 351 353 350 351 351 347 346 346 347 350 351 355 355 353 350 349 348 345 344 343 341 340 339 339 338 337 336
353 352 349 351 352 353 353 353 352 354 352 352 352 352 351 352 352 353 353 351 352 350 346 344 344 344 346 350 352 353 351 349 348 347 345 343 342 342 341 340 339 338 338
354 354 351 352 355 355 353 353 352 351 349 350 349 348 349 350 352 352 351 350 347 346 348 346 341 342 343 344 347 349 350 348 347 346 345 344 343 342 341 341 341 340 339
353 355 354 355 358 354 353 352 351 350 347 346 344 345 346 348 348 346 346 346 347 346 344 349 345 344 343 342 344 345 345 346 345 345 346 345 344 343 341 342 341 341 342
357 357 355 357 355 352 350 351 351 351 347 345 342 341 344 345 345 347 343 343 343 342 342 345 346 345 344 341 341 341 342 343 345 346 344 344 344 344 342 342 342 341 342
359 359 355 355 353 351 353 354 351 347 344 345 338 336 336 343 344 341 342 339 338 338 340 342 343 345 346 342 342 340 342 343 343 345 344 342 343 343 342 341 342 341 341
355 355 355 353 353 349 349 348 346 342 342 340 331 328 325 328 336 334 336 335 333 332 336 339 343 346 346 346 346 343 341 343 344 345 344 342 341 343 342 341 342 341 340
350 351 351 351 349 346 342 342 339 336 330 337 334 326 319 319 322 332 331 328 334 331 334 336 343 344 344 345 345 345 341 339 340 342 343 342 341 342 342 341 341 341 341
346 345 342 341 341 338 336 333 333 332 331 325 332 331 332 329 319 315 323 326 327 328 331 331 338 339 339 341 344 343 339 338 340 340 341 342 342 340 340 341 340 340 341
339 337 336 335 334 331 334 333 332 331 329 324 323 322 326 323 328 319 314 316 321 322 325 328 335 335 334 334 338 341 337 337 336 335 337 339 342 339 341 340 341 341 341
331 331 329 330 331 329 328 327 329 328 328 327 325 323 320 318 316 316 314 315 316 319 322 328 330 333 330 329 335 334 336 335 331 331 332 336 342 342 340 338 341 341 341
328 329 330 329 327 328 326 326 327 326 326 324 326 320 320 319 318 317 315 313 311 314 317 321 325 329 327 327 327 330 337 333 330 328 330 333 337 338 340 339 339 340 340
327 329 329 328 325 324 323 323 322 323 325 322 321 320 317 317 316 314 312 310 308 310 314 321 322 325 325 326 328 328 335 332 330 327 327 329 331 332 333 335 335 334 337
325 326 326 324 323 322 322 322 321 321 322 323 321 321 316 316 315 314 313 312 309 305 307 314 314 324 322 324 326 327 331 331 331 328 325 326 328 329 330 331 331 330 330
325 324 323 323 321 321 320 322 321 321 321 319 317 318 317 315 313 312 311 311 310 308 305 311 312 318 319 320 323 326 329 330 330 328 326 325 324 326 327 327 326 324 322
324 322 321 321 320 320 320 322 320 319 318 317 317 315 314 315 312 311 311 311 311 311 307 310 313 317 318 320 322 325 327 329 333 329 327 324 322 323 323 322 320 319 318
322 321 319 319 318 318 320 319 318 317 315 314 313 313 312 311 313 313 311 313 312 314 311 311 314 314 316 320 322 323 324 326 330 329 325 323 320 319 319 317 315 315 315
321 319 319 317 316 318 317 317 317 315 314 314 313 312 311 311 310 311 312 312 312 313 313 311 311 313 315 317 318 320 321 326 326 329 323 321 318 317 316 314 313 311 311
319 319 320 317 317 315 316 316 315 315 313 312 312 312 311 310 310 311 310 311 311 311 311 311 311 311 313 318 316 312 313 318 324 324 326 320 320 318 315 313 312 311 308
320 320 318 317 316 315 311 313 314 312 312 311 311 310 311 308 304 305 305 307 308 308 307 308 308 310 311 309 310 311 310 314 319 323 322 327 322 318 315 312 312 310 308
318 315 313 314 314 313 304 303 304 308 309 309 309 310 310 308 308 304 303 302 303 304 304 305 306 306 308 308 308 308 308 309 306 319 319 319 324 319 317 312 311 308 306
317 315 314 312 310 308 301 301 302 306 307 308 308 308 308 307 305 308 306 305 305 304 304 305 304 304 304 305 306 307 308 307 307 311 315 316 326 319 322 315 309 307 304
311 307 305 304 305 303 299 298 299 304 306 307 306 306 307 308 307 305 305 305 305 306 305 304 305 305 304 304 305 306 306 307 309 311 318 316 325 319 317 318 308 306 303
301 301 300 300 299 300 299 297 298 303 304 305 305 306 306 306 302 299 303 301 303 304 305 303 301 300 298 297 299 303 302 303 304 307 313 314 320 318 320 313 311 306 303
298 299 298 299 300 300 299 298 297 302 301 302 306 305 303 302 299 298 301 300 298 300 300 300 301 302 301 302 300 305 305 303 304 304 313 315 316 315 315 310 309 306 303
Wind_Speed
5 5 4 5 5 4 5 6 6 6 8 9 8 7 9 9 8 6 6 9 5 7 7 9 10 11 14 19 21 21 21 20 20 19 18 18 18 18 17 16 15 14 13
5 5 5 6 6 6 6 6 6 7 8 9 8 9 8 9 8 8 8 6 9 7 7 9 8 9 11 11 16 22 22 21 21 21 20 18 19 19 19 18 17 16 15
7 6 5 6 5 5 7 7 7 7 7 7 7 7 8 8 8 7 8 8 5 12 8 4 6 9 10 11 12 14 21 21 22 21 21 21 20 20 20 20 19 18 17
7 6 6 6 4 5 6 6 6 7 8 6 7 8 8 8 8 8 7 6 6 7 5 8 3 9 12 12 13 14 15 17 19 20 22 23 23 22 20 21 20 19 18
7 7 7 5 4 6 5 5 5 5 5 6 7 7 7 7 6 6 5 6 6 7 7 1 4 10 10 8 12 14 13 12 12 19 23 24 25 24 25 21 20 19 18
8 8 6 4 6 4 5 4 5 4 5 6 7 7 7 6 4 3 5 6 5 7 7 8 9 6 10 5 9 12 12 14 16 19 22 25 27 26 24 23 22 19 18
6 6 5 5 5 5 4 3 5 4 6 4 8 5 4 3 4 5 4 4 6 8 8 8 7 7 5 10 9 4 9 13 16 16 12 18 23 25 26 27 23 19 17
5 5 3 4 3 2 3 2 4 6 3 4 6 8 5 4 5 3 5 4 8 9 8 8 9 10 8 7 6 6 8 11 13 13 11 11 19 24 22 21 22 19 18
5 4 3 2 2 2 2 1 3 4 3 1 4 5 5 5 9 3 2 5 7 8 8 9 10 11 10 8 8 6 7 10 13 13 11 12 14 19 23 22 24 18 18
8 7 6 5 2 2 3 3 2 4 5 3 2 3 4 6 6 6 5 4 7 7 8 8 5 6 9 8 11 7 9 11 14 15 16 16 18 16 14 13 19 17 16
9 7 7 6 4 3 4 3 2 4 2 5 4 4 3 4 3 8 9 9 9 9 8 9 5 6 9 10 9 13 16 13 11 15 15 15 19 18 17 13 16 19 17
8 8 8 7 5 5 4 3 3 4 4 4 4 4 5 5 7 6 9 10 9 9 9 5 7 5 8 9 11 18 16 9 12 14 13 10 16 16 19 17 19 20 17
8 9 9 8 6 5 4 4 3 4 4 5 5 4 4 5 5 6 8 10 11 11 7 7 7 5 7 9 10 18 19 6 10 14 11 5 6 10 11 15 17 18 14
10 12 10 8 8 6 5 4 4 3 4 3 4 4 4 3 4 5 7 10 12 11 10 10 7 7 7 9 10 18 12 9 12 14 10 2 10 11 5 10 12 15 14
11 12 11 10 8 6 5 4 4 4 3 1 2 2 5 4 5 6 6 7 8 12 12 9 8 11 10 11 11 13 12 14 16 12 13 10 7 9 12 13 11 7 10
13 12 12 11 8 6 4 2 4 3 3 2 3 3 5 5 7 5 6 6 7 9 13 12 11 11 12 11 12 13 12 10 13 9 12 10 8 10 13 18 17 18 12
13 13 11 10 9 6 4 2 3 3 2 3 4 5 6 6 6 7 6 6 7 8 11 11 11 10 13 11 11 10 10 9 7 6 11 11 5 11 13 16 19 18 16
11 11 10 8 8 6 5 4 1 2 3 4 5 6 7 6 8 8 7 8 8 8 9 13 12 10 11 11 10 13 9 9 8 7 8 8 3 10 11 14 15 14 14
13 11 8 8 7 6 4 3 2 3 5 6 6 8 9 8 9 8 9 9 9 8 8 10 10 9 9 9 8 11 9 10 5 8 8 4 5 14 15 17 16 15 13
11 11 10 8 6 5 3 2 3 3 5 6 7 7 9 10 10 11 9 9 9 10 11 10 9 8 8 10 7 9 10 8 6 6 3 3 2 3 13 14 15 15 12
10 9 10 8 6 3 4 5 5 5 6 8 9 9 9 8 9 7 8 10 11 10 11 11 9 9 8 8 7 8 9 9 7 3 6 6 1 3 2 7 11 14 11
11 10 9 8 6 2 9 4 5 7 8 8 9 9 8 7 12 11 8 5 8 9 12 11 10 8 9 9 7 8 11 8 7 6 11 7 4 2 4 4 5 11 11
12 10 8 6 6 6 9 6 6 8 10 9 9 10 10 8 3 12 7 10 14 13 9 10 12 10 9 8 10 11 10 11 10 10 12 9 2 2 2 4 13 11 8
10 9 8 8 6 5 5 3 5 8 10 11 10 11 11 11 9 8 12 14 13 11 7 6 9 9 8 10 12 11 13 14 14 10 9 9 4 2 2 1 11 16 16
8 8 6 4 4 4 4 5 4 9 9 11 11 11 12 12 8 6 9 14 14 12 6 8 9 9 10 11 12 9 11 12 11 8 8 7 2 3 2 1 2 12 12
7 4 3 2 6 6 4 2 5 9 10 9 11 11 10 13 8 5 10 12 12 11 10 10 11 11 12 14 21 13 11 12 11 10 2 4 4 2 4 2 2 5 6
Wind_Direction
232 239 245 262 279 283 267 271 279 286 287 271 278 305 291 302 299 290 304 156 216 274 281 289 283 277 265 236 226 223 221 217 219 223 221 220 221 220 219 214 214 217 221
219 244 230 241 247 252 266 280 281 303 300 303 293 287 300 294 299 299 299 288 176 218 260 294 297 297 298 284 250 230 225 216 217 214 218 220 221 223 221 221 216 215 221
211 257 243 248 247 262 279 272 273 271 272 286 301 281 290 281 282 290 291 296 290 201 202 250 294 311 306 299 283 258 236 228 221 216 215 214 219 222 222 222 221 217 220
224 226 241 247 269 265 268 274 288 307 300 315 298 300 303 297 290 298 285 309 316 313 230 184 251 299 298 295 289 290 251 240 237 227 220 218 214 216 220 222 223 221 219
227 238 247 256 260 261 270 282 278 287 297 284 287 284 287 292 304 299 301 302 301 308 319 2 241 254 266 285 288 287 292 289 275 247 233 225 220 212 217 218 224 225 222
224 221 235 235 235 239 242 258 298 291 307 309 301 293 281 283 278 262 293 286 317 319 321 320 319 309 188 236 282 288 288 295 290 294 245 232 222 211 211 214 217 223 229
197 200 211 196 230 239 285 279 281 271 296 319 288 295 274 238 267 318 304 335 350 322 317 341 322 336 305 186 223 265 312 302 298 300 263 241 223 215 219 212 215 213 227
171 193 223 193 229 163 248 298 295 300 285 13 329 287 292 254 167 312 313 321 10 319 336 338 331 333 321 316 20 314 292 304 317 306 301 229 232 213 216 218 224 209 221
144 124 159 103 132 268 127 321 353 331 326 24 350 332 318 348 333 143 344 343 337 332 335 331 21 354 341 321 312 318 37 326 318 317 306 239 222 217 226 220 227 210 219
139 137 131 125 156 103 106 110 59 351 310 342 278 15 350 355 339 323 327 344 344 317 348 335 20 342 356 344 336 347 7 337 324 320 304 296 211 220 219 224 226 216 221
143 133 128 127 138 149 98 79 54 19 26 337 350 334 337 300 275 313 306 338 326 339 339 323 342 358 358 345 355 350 335 322 324 318 308 302 210 204 204 231 238 230 222
142 138 134 131 138 125 131 119 106 76 27 13 357 332 351 351 345 323 319 320 323 320 322 311 296 1 355 348 353 354 325 333 330 326 324 302 205 213 197 221 235 230 222
158 148 148 153 150 130 141 137 106 81 55 35 359 3 357 358 336 321 306 319 319 316 308 321 337 336 359 349 346 350 337 359 342 334 334 26 178 182 208 235 250 241 209
157 157 155 145 142 144 136 135 132 96 81 77 57 17 328 346 328 326 323 322 319 323 319 350 326 340 352 350 336 334 344 349 344 331 324 171 127 135 179 252 252 241 169
144 160 149 145 144 139 132 155 105 132 119 53 88 18 316 342 332 320 313 310 310 311 312 322 328 344 342 335 332 334 338 334 317 323 319 296 167 144 159 178 144 149 137
154 154 150 138 143 129 130 188 168 124 87 24 330 339 324 350 304 321 305 299 291 292 296 308 317 333 335 325 324 322 332 318 320 318 325 316 252 162 158 146 143 142 147
156 154 151 142 138 131 138 132 59 57 15 355 330 328 320 323 327 308 310 292 297 291 292 303 312 316 313 313 321 325 312 324 316 359 324 316 211 154 148 146 147 147 139
154 150 145 149 131 133 163 138 108 39 327 319 318 309 305 328 314 303 307 303 309 297 293 301 306 308 308 321 319 322 328 314 321 323 323 290 224 136 137 140 135 142 137
153 151 159 139 120 147 155 112 47 358 337 328 322 312 315 319 311 320 313 309 305 301 297 293 303 298 318 310 334 325 332 309 339 358 7 302 189 146 151 154 150 150 149
147 162 147 128 130 150 100 40 30 344 318 311 296 301 308 310 314 322 310 309 305 318 296 284 294 304 303 23 336 332 324 325 7 20 347 54 197 219 160 156 163 158 154
159 147 129 118 137 138 52 5 337 319 319 312 312 307 303 356 326 314 312 334 322 316 313 309 319 318 344 358 338 325 319 328 316 14 358 350 71 136 151 168 170 163 163
143 132 135 150 145 83 69 39 331 324 317 308 309 308 305 264 247 229 234 271 301 306 306 313 307 314 315 312 330 329 311 332 321 312 338 328 347 196 165 163 208 171 171
142 133 109 80 55 27 51 10 353 301 307 302 301 301 297 303 272 289 259 227 252 231 249 302 294 317 325 342 321 311 318 309 299 302 300 296 212 360 161 176 166 170 195
113 105 103 87 48 41 56 1 312 287 286 287 291 283 281 279 282 306 304 303 297 298 294 264 296 300 303 322 306 301 297 287 272 265 270 280 231 122 60 270 188 174 164
82 78 73 65 64 345 300 258 304 282 273 282 278 276 281 288 309 146 285 290 293 293 287 223 268 278 253 237 255 291 279 290 295 291 280 254 254 185 154 109 181 147 150
92 97 105 229 215 245 242 280 296 293 296 294 287 280 245 247 255 207 276 281 285 296 312 312 304 291 268 251 233 245 271 271 279 278 313 314 333 300 193 77 77 131 134